Location: Unspecified
(0.0000°N, 0.0000°E)
Time: 06:16:21
(UTC+00:00)

UNISAT 6 - Visible Passes

Search period start: 21 June 2021 00:00
Search period end: 01 July 2021 00:00
Orbit: 607 x 687 km, 97.7° (Epoch: 20 June)

Date Brightness Start Highest point End Pass type
(mag) Time Alt. Az. Time Alt. Az. Time Alt. Az.
21 Jun ? 19:22:24 10° NNW 19:26:26 35° WNW 19:30:24 10° SW visible
22 Jun ? 19:49:23 10° NW 19:52:01 16° WNW 19:54:38 10° WSW visible
23 Jun ? 18:37:00 10° NNE 18:41:14 49° ESE 18:45:25 10° S visible
24 Jun ? 19:02:31 10° N 19:06:52 68° W 19:11:09 10° SSW visible
25 Jun ? 19:28:43 10° NNW 19:32:28 28° WNW 19:36:10 10° SW visible
26 Jun ? 19:56:16 10° NW 19:58:04 12° WNW 19:59:51 10° WSW visible
27 Jun ? 18:43:00 10° NNE 18:47:17 62° E 18:51:31 10° S visible
28 Jun ? 19:08:40 10° N 19:12:54 53° WNW 19:17:05 10° SSW visible
29 Jun ? 19:35:06 10° NNW 19:38:30 23° WNW 19:41:53 10° SW visible
30 Jun ? 18:23:51 10° NE 18:27:42 32° ESE 18:31:29 10° SSE visible
